Regional Weather Roundup
Issued by NWS

Home | Current Version | Previous Version | Text Only | Print | Product List | Glossary Off
Versions: 1 2 3 4 5 6 7 8 9 10 11 12 13 14 15 16 17 18 19 20 21 22 23 24 25 26 27 28 29 30 31 32 33 34 35 36 37 38 39 40 41 42 43 44 45 46 47 48 49 50

000
ASUS43 KIND 221959
RWRIN

WEATHER ROUNDUP FOR INDIANA
NATIONAL WEATHER SERVICE INDIANAPOLIS IN
300 PM EST SUN JAN 22 2017

NOTE: "FAIR" INDICATES FEW OR NO CLOUDS BELOW 12,000 FEET WITH NO
SIGNIFICANT WEATHER AND/OR OBSTRUCTIONS TO VISIBILITY.

* - STATION DOES NOT REPORT WEATHER SUCH AS PRECIPITATION OR FOG.

+ - STATION NOT QUALITY CONTROLLED BY THE NATIONAL WEATHER SERVICE.
    USE DATA WITH CAUTION...ESPECIALLY DEWPOINT AND RELATIVE
    HUMIDITY OBSERVATIONS.

INZ001>003-010>013-019-020-222100-
NORTHWEST INDIANA

CITY           SKY/WX    TMP DP  RH WIND       PRES   REMARKS
GARY /AIRPORT/ FOG       41  41 100 N8        29.61F VSB 1/4
KNOX *+        CLOUDY    45  37  76 N10       29.57S
MICHIGAN CITY+ CLOUDY    41  41 100 N8        29.60S FOG
MONTICELLO +   MOSUNNY   51  47  84 N8        29.53F
VALPARAISO     CLOUDY    45  43  93 N9        29.59S

$$

LMZ046-743>745-222100-
SOUTHERN LAKE MICHIGAN

STATION/POSITION TIME  TEMP    WIND        PRES    WAVE
                       AIR SEA DIR/SP/G            HT
                 (UTC) (F)     (DEG/KT/KT) (MB)    (FT)
BURNS HARBOR     1940   36     360/  6/  7 1003.4F
MICHIGAN CITY    1930   37     350/  9/  9   N/A

$$

INZ004-005-014>016-021>024-222100-
NORTH CENTRAL INDIANA

CITY           SKY/WX    TMP DP  RH WIND       PRES   REMARKS
GOSHEN         CLOUDY    51  47  86 N8        29.56S
SOUTH BEND     FOG       42  42 100 N8        29.59S VSB 1/2
WARSAW +       PTSUNNY   50  50 100 N5        29.55S

$$

INZ006>009-017-018-025>027-222100-
NORTHEAST INDIANA

CITY           SKY/WX    TMP DP  RH WIND       PRES   REMARKS
ANGOLA *+      CLOUDY    52  39  62 N3        29.56S
FORT WAYNE     CLOUDY    61  51  70 NE9       29.53F
KENDALLVILLE + CLOUDY    51  49  95 N6        29.56S

$$

INZ028-029-035-036-043>045-051>053-222100-
WEST CENTRAL INDIANA

CITY           SKY/WX    TMP DP  RH WIND       PRES   REMARKS
CRAWFORDSVL +  MOSUNNY   58  54  85 N6        29.49F
LAFAYETTE      MOSUNNY   53  49  86 N9        29.52S
TERRE HAUTE    CLOUDY    60  50  69 N7        29.47F

$$

INZ030>032-037>040-046>048-054>057-064-065-222100-
CENTRAL INDIANA

CITY           SKY/WX    TMP DP  RH WIND       PRES   REMARKS
COLUMBUS       MOSUNNY   59  55  88 N9        29.47S
FRANKFORT +    MOSUNNY   61  55  83 NE7       29.53S
INDIANAPOLIS   CLOUDY    61  50  67 N9        29.47F
-EAGLE CREEK   CLOUDY    62  50  64 N8        29.48F
KOKOMO +       CLOUDY    58  53  84 N12       29.52F
MT COMFORT *+  CLOUDY    59  52  77 N7        29.49S
SHELBYVILLE    CLOUDY    60  51  72 NE8       29.47S

$$

INZ033-034-041-042-049-050-058-059-222100-
EAST CENTRAL INDIANA

CITY           SKY/WX    TMP DP  RH WIND       PRES   REMARKS
MUNCIE         CLOUDY    62  52  69 NE6       29.50S

$$

INZ060-061-067>069-081>083-085>088-222100-
SOUTHWEST INDIANA

CITY           SKY/WX    TMP DP  RH WIND       PRES   REMARKS
EVANSVILLE     CLOUDY    61  51  70 NE7       29.41F
HUNTINGBURG *+ MOSUNNY   59  52  77 NE12      29.42F

$$

INZ062-063-066-070>080-084-089>092-222100-
SOUTH CENTRAL AND SOUTHEAST INDIANA

CITY           SKY/WX    TMP DP  RH WIND       PRES   REMARKS
BLOOMINGTON    CLOUDY    59  50  72 N8        29.45F
MADISON *+     CLOUDY    61  50  67 NE10      29.45F
SEYMOUR +      CLOUDY    61  52  72 N9        29.44F

$$





USA.gov is the U.S. government's official web portal to all federal, state and local government web resources and services.